This is the latest recevied weather packets stored in our database for station/object KE8DDT-7. If no packets are shown the sender has not sent any weather packets the latest 10 day(s).
| Time | Temp. | Humidity | Pressure | Rain* | Wind** | Luminosity | Snow |
|---|---|---|---|---|---|---|---|
| 1777573838 | 11.11° C | 52% | 1006.2 hPa | 0 mm | - | 236 W/m² | - |
| 1777573538 | 10.56° C | 52% | 1006.3 hPa | 0 mm | - | 1114 W/m² | - |
| 1777573238 | 10° C | 52% | 1006.4 hPa | 0 mm | - | 294 W/m² | - |
| 1777572938 | 10° C | 55% | 1006.3 hPa | 0 mm | - | 1023 W/m² | - |
| 1777572638 | 9.44° C | 53% | 1006.4 hPa | 0 mm | - | 257 W/m² | - |
| 1777572338 | 10° C | 52% | 1006.4 hPa | 0 mm | - | 271 W/m² | - |
| 1777572038 | 9.44° C | 52% | 1006.3 hPa | 0 mm | - | 306 W/m² | - |
| 1777571738 | 9.44° C | 52% | 1006.3 hPa | 0 mm | - | 362 W/m² | - |
| 1777571438 | 10° C | 52% | 1006.2 hPa | 0 mm | - | 243 W/m² | - |
| 1777571138 | 10° C | 51% | 1006.2 hPa | 0 mm | - | 1111 W/m² | - |
| 1777570838 | 10° C | 54% | 1006.4 hPa | 0 mm | - | 271 W/m² | - |
| 1777570538 | 10° C | 52% | 1006.4 hPa | 0 mm | - | 253 W/m² | - |
| 1777570239 | 10° C | 52% | 1006.4 hPa | 0 mm | - | 271 W/m² | - |
| 1777569938 | 9.44° C | 56% | 1006.5 hPa | 0 mm | - | 1185 W/m² | - |
| 1777569638 | 9.44° C | 56% | 1006.5 hPa | 0 mm | - | 1088 W/m² | - |
| 1777569338 | 8.89° C | 59% | 1006.6 hPa | 0 mm | - | 650 W/m² | - |
| 1777568779 | 9.44° C | 57% | 1006.6 hPa | 0 mm | - | 278 W/m² | - |
| 1777568479 | 9.44° C | 58% | 1006.5 hPa | 0 mm | - | 171 W/m² | - |
| 1777568179 | 9.44° C | 58% | 1006.7 hPa | 0 mm | - | 338 W/m² | - |
| 1777567879 | 9.44° C | 58% | 1006.6 hPa | 0 mm | - | 1049 W/m² | - |
| 1777567579 | 9.44° C | 58% | 1006.7 hPa | 0 mm | - | 200 W/m² | - |
| 1777567279 | 9.44° C | 58% | 1006.6 hPa | 0 mm | - | 318 W/m² | - |
| 1777566979 | 9.44° C | 58% | 1006.7 hPa | 0 mm | - | 297 W/m² | - |
| 1777566679 | 9.44° C | 59% | 1006.8 hPa | 0 mm | - | 1125 W/m² | - |
| 1777566379 | 9.44° C | 57% | 1006.8 hPa | 0 mm | - | 193 W/m² | - |
* Rain latest hour (hover to see other rain measurements)
** Current wind speed in m/s (hover to see current wind gust speed)